This demonstration page uses our WeatherBlox Daily Observations layout. Learn more.

Left ArrowRight Arrow

34.16533, -84.80231

Hourly Observations for April 25, 2022

Temp ( °F °C ) Dew Point ( °F °C ) Humidity (%) Winds ( mph kmh ) Pressure ( in mb ) Visibility ( mi km ) Precip ( " mm )
12:15 am 00:15 Cloudy 64 18 59 15 83 83 Calm 30.14 1021 10 16 0.00 0.00
12:35 am 00:35 Cloudy 63 17 59 15 88 88 Calm 30.14 1021 10 16 0.00 0.00
12:55 am 00:55 Cloudy 63 17 57 14 83 83 Calm 30.14 1021 10 16 0.00 0.00
1:15 am 01:15 Cloudy 63 17 57 14 83 83 Calm 30.14 1021 10 16 0.00 0.00
1:35 am 01:35 Cloudy 63 17 57 14 83 83 Calm 30.14 1021 10 16 0.00 0.00
1:55 am 01:55 Cloudy 63 17 57 14 83 83 Calm 30.14 1021 10 16 0.00 0.00
2:15 am 02:15 Cloudy 63 17 57 14 83 83 Calm 30.13 1020 10 16 0.00 0.00
2:35 am 02:35 Cloudy 63 17 57 14 83 83 Calm 30.13 1020 10 16 0.00 0.00
2:55 am 02:55 Mostly Cloudy 63 17 57 14 83 83 ENE 5 7 30.13 1020 10 16 0.00 0.00
3:15 am 03:15 Mostly Cloudy 61 16 57 14 88 88 Calm 30.13 1020 10 16 0.00 0.00
3:35 am 03:35 Mostly Cloudy 61 16 57 14 88 88 Calm 30.12 1020 10 16 0.00 0.00
3:55 am 03:55 Mostly Cloudy 61 16 57 14 88 88 Calm 30.12 1020 10 16 0.00 0.00
4:15 am 04:15 Mostly Cloudy 61 16 57 14 88 88 E 5 7 30.12 1020 10 16 0.00 0.00
4:35 am 04:35 Mostly Cloudy 59 15 57 14 94 94 E 5 7 30.13 1020 10 16 0.00 0.00
4:55 am 04:55 Cloudy 59 15 57 14 94 94 E 3 6 30.13 1020 10 16 0.00 0.00
5:15 am 05:15 Cloudy 59 15 57 14 94 94 Calm 30.13 1020 10 16 0.00 0.00
5:35 am 05:35 Cloudy 59 15 57 14 94 94 E 5 7 30.12 1020 10 16 0.00 0.00
5:55 am 05:55 Mostly Cloudy 59 15 57 14 94 94 Calm 30.13 1020 10 16 0.00 0.00
6:15 am 06:15 Partly Cloudy 59 15 57 14 94 94 Calm 30.13 1020 10 16 0.00 0.00
6:35 am 06:35 Partly Cloudy 59 15 57 14 94 94 Calm 30.14 1021 10 16 0.00 0.00
6:55 am 06:55 Mostly Clear 57 14 55 13 94 94 Calm 30.14 1021 9 14 0.00 0.00
7:15 am 07:15 Sunny 59 15 57 14 94 94 Calm 30.15 1021 10 16 0.00 0.00
7:35 am 07:35 Sunny 59 15 57 14 94 94 ENE 5 7 30.16 1021 10 16 0.00 0.00
7:55 am 07:55 Sunny 59 15 57 14 94 94 Calm 30.16 1021 10 16 0.00 0.00
8:15 am 08:15 Sunny 61 16 59 15 94 94 ENE 3 6 30.15 1021 10 16 0.00 0.00
8:35 am 08:35 Sunny 63 17 59 15 88 88 Calm 30.16 1021 10 16 0.00 0.00
8:55 am 08:55 Mostly Cloudy 64 18 59 15 83 83 E 5 7 30.16 1021 10 16 0.00 0.00
9:15 am 09:15 Cloudy 66 19 61 16 83 83 Calm 30.16 1021 10 16 0.00 0.00
9:35 am 09:35 Cloudy 68 20 61 16 78 78 Calm 30.17 1022 10 16 0.00 0.00
9:55 am 09:55 Partly Cloudy 68 20 61 16 78 78 Calm 30.17 1022 10 16 0.00 0.00
10:15 am 10:15 Mostly Sunny 70 21 61 16 73 73 Calm 30.16 1021 10 16 0.00 0.00
10:35 am 10:35 Sunny 72 22 61 16 69 69 ENE 5 7 30.16 1021 10 16 0.00 0.00
10:55 am 10:55 Sunny 75 24 63 17 65 65 Calm 30.15 1021 10 16 0.00 0.00
11:15 am 11:15 Sunny 75 24 63 17 65 65 VRB 3 6 30.15 1021 10 16 0.00 0.00
11:35 am 11:35 Sunny 77 25 63 17 61 61 W 5 7 30.14 1021 10 16 0.00 0.00
11:55 am 11:55 Mostly Sunny 77 25 63 17 61 61 W 8 13 30.15 1021 10 16 0.00 0.00
12:15 pm 12:15 Mostly Cloudy 77 25 63 17 61 61 W 6 9 30.14 1021 10 16 0.00 0.00
12:35 pm 12:35 Partly Cloudy 79 26 63 17 58 58 W 8 13 30.13 1020 10 16 0.00 0.00
12:55 pm 12:55 Partly Cloudy 79 26 61 16 54 54 SW 6 9 30.13 1020 10 16 0.00 0.00
1:15 pm 13:15 Partly Cloudy 79 26 59 15 51 51 W 8 13 30.12 1020 10 16 0.00 0.00
1:35 pm 13:35 Mostly Cloudy 81 27 59 15 48 48 VRB 5 7 30.11 1020 10 16 0.00 0.00
1:55 pm 13:55 Mostly Cloudy 79 26 61 16 54 54 Calm 30.11 1020 10 16 0.00 0.00
2:15 pm 14:15 Partly Cloudy 81 27 59 15 48 48 VRB 6 9 30.09 1019 10 16 0.00 0.00
2:35 pm 14:35 Partly Cloudy 81 27 59 15 48 48 VRB 6 9 30.08 1019 10 16 0.00 0.00
2:55 pm 14:55 Mostly Sunny 84 29 57 14 40 40 S 8 13 30.07 1018 9 14 0.00 0.00
3:15 pm 15:15 Mostly Cloudy 81 27 57 14 45 45 S 6 9 30.07 1018 8 13 0.00 0.00
3:35 pm 15:35 Partly Cloudy 84 29 57 14 40 40 VRB 6 9 30.06 1018 9 14 0.00 0.00
3:55 pm 15:55 Mostly Cloudy 82 28 57 14 42 42 VRB 6 9 30.05 1018 10 16 0.00 0.00
4:15 pm 16:15 Partly Cloudy 84 29 57 14 40 40 VRB 6 9 30.05 1018 10 16 0.00 0.00
4:35 pm 16:35 Mostly Cloudy 82 28 57 14 42 42 VRB 5 7 30.05 1018 9 14 0.00 0.00
4:55 pm 16:55 Mostly Cloudy 82 28 57 14 42 42 VRB 5 7 30.05 1018 9 14 0.00 0.00
5:15 pm 17:15 Partly Cloudy 84 29 57 14 40 40 S 7 11 30.04 1017 10 16 0.00 0.00
5:35 pm 17:35 Mostly Cloudy 84 29 55 13 37 37 VRB 5 7 30.04 1017 10 16 0.00 0.00
5:55 pm 17:55 Partly Cloudy 84 29 55 13 37 37 S 8 13 30.04 1017 10 16 0.00 0.00
6:15 pm 18:15 Partly Cloudy 84 29 57 14 40 40 SSW 3 6 30.04 1017 10 16 0.00 0.00
6:35 pm 18:35 Mostly Sunny 84 29 55 13 37 37 VRB 5 7 30.04 1017 10 16 0.00 0.00
6:55 pm 18:55 Sunny 82 28 57 14 42 42 SSW 7 11 30.04 1017 10 16 0.00 0.00
7:15 pm 19:15 Mostly Sunny 82 28 57 14 42 42 SSW 7 11 30.04 1017 10 16 0.00 0.00
7:35 pm 19:35 Mostly Sunny 81 27 57 14 45 45 S 7 11 30.04 1017 10 16 0.00 0.00
7:55 pm 19:55 Sunny 79 26 57 14 48 48 Calm 30.05 1017 10 16 0.00 0.00
8:15 pm 20:15 Sunny 79 26 59 15 51 51 Calm 30.05 1017 10 16 0.00 0.00
8:35 pm 20:35 Clear 77 25 59 15 54 54 Calm 30.06 1018 10 16 0.00 0.00
8:55 pm 20:55 Mostly Clear 75 24 59 15 57 57 Calm 30.06 1018 10 16 0.00 0.00
9:15 pm 21:15 Partly Cloudy 75 24 59 15 57 57 S 6 9 30.06 1018 10 16 0.00 0.00
9:35 pm 21:35 Partly Cloudy 75 24 59 15 57 57 S 6 9 30.07 1018 10 16 0.00 0.00
9:55 pm 21:55 Mostly Clear 75 24 59 15 57 57 S 7 11 30.07 1018 10 16 0.00 0.00
10:15 pm 22:15 Clear 73 23 59 15 61 61 S 5 7 30.08 1019 10 16 0.00 0.00
10:35 pm 22:35 Clear 70 21 59 15 69 69 Calm 30.09 1019 10 16 0.00 0.00
10:55 pm 22:55 Partly Cloudy 68 20 59 15 73 73 Calm 30.09 1019 10 16 0.00 0.00
11:15 pm 23:15 Partly Cloudy 66 19 61 16 83 83 Calm 30.10 1019 10 16 0.00 0.00
11:35 pm 23:35 Partly Cloudy 66 19 61 16 83 83 Calm 30.10 1019 10 16 0.00 0.00
11:55 pm 23:55 Partly Cloudy 64 18 61 16 88 88 Calm 30.10 1019 10 16 0.00 0.00

Powered by AerisWeather